STARLINK-5720, 55619

Orbit data source: Space-Track

STARLINK-5720, 55619 is a payload satellite owned by SpaceX/Seattle (US) in LEO that was launched on Sun, 12 Feb 2023 UTC via an FALCON 9 launch vehicle from the Air Force Eastern Test Range (AFETR). Payload-class satellites include a variety of spacecraft equipped with specific instruments for various scientific and technological missions. These include communications satellites like Starlink; space stations such as the ISS; scientific satellites like the Hubble; Earth observation satellites from companies like Planet Labs, Umbra, and HawkEye 360; GPS; miniature CubeSats for education and research; and military/defense satellites.

Loading next visibility...
Identifier
55619, 2023-020BC
Orbit
LEO
Country
Flag of USUS
Related business
Manufacturer
SpaceX/Seattle
Mission
Operational Commercial Communications
Bus & Motor
STARLINK, Unknown motor
Mass
305 kg wet, ~290 kg dry
Launch date (UTC)
2023-02-12 (3 years ago)
Launch vehicle
FALCON 9
Launch site
Air Force Eastern Test Range (AFETR)
Object type
Payload
Rocket body
Debris
Shape & HBR
Box + 1 Pan, 10.1 m
Radar Cross Section
13.562 m², Large (>1 m²)

Expand to show TLE details & history
Last TLE update: 18 hours ago

TLE from 18 hours ago
0 STARLINK-5720
1 55619U 23020BC  26061.58944323  .00000110  00000-0  23208-4 0  9997
2 55619  43.0051  30.0381 0001183 272.8118  87.2589 15.02536040168008
Epoch: 2026-03-02T14:08Z
TLE epoch observation values (Epoch: 2026-03-02T14:08:47.895Z)
Latitude
Longitude
17.45785°
Altitude
558.819 km
Speed
7.584 km/s
True Right ascension
02h 00m 09s
True Declination
0° 00' 00"
Sunlit
Object was in daylight at epoch
Visualization orbit readout
Latitude
Unknown
Longitude
Unknown
Altitude
Unknown
Speed
Unknown
Apparent Right ascension
Unknown
Apparent Declination
Unknown
Sunlit
N/A
Visualization observer readout
Local Sidereal Time
11:23:41
Azimuth
Unknown
Elevation
Unknown
Doppler factor
Unknown
Orbital elements
Apogee altitude
561.823 km
Perigee altitude
560.182 km
Semi-major axis
6,939.14 km
Eccentricity
0.00012
Inclination
43.0051°
RAAN
30.0381°
Arg. of periapsis
272.8118°
True anomaly
87.27244°
Mean anomaly
87.2589°
Eccentric anomaly
87.26567°
Mean motion
3.75478 °/min
Orbital period
95.88 mins
BSTAR
0.000023208
Loading maneuver chart data...
Computing Atmospheric mass density...
Loading historical data...
Loading historical data...
Loading historical data...
Loading historical data...
Loading historical data...
Loading historical data...
Loading historical data...

Documentation

Showing up to 5 results
|